Location: Middlebury
(44.0133°N, 73.1813°W)
Time: 17:37:09
(UTC-05:00)

X-37B - Visible Passes

Search period start: 28 January 2022 00:00
Search period end: 07 February 2022 00:00
Orbit: 331 x 339 km, 45.0° (Epoch: 27 January)

Date Brightness Start Highest point End Pass type
(mag) Time Alt. Az. Time Alt. Az. Time Alt. Az.
28 Jan 2.2 17:28:30 10° SSW 17:30:38 20° SSE 17:32:48 10° E visible
28 Jan 2.4 19:03:02 10° WSW 19:04:31 27° WSW 19:04:31 27° WSW visible
29 Jan 1.0 17:48:14 10° SW 17:50:55 42° SSE 17:52:56 15° E visible
29 Jan 3.5 19:23:31 10° W 19:24:10 15° W 19:24:10 15° W visible
30 Jan 0.2 18:08:29 10° WSW 18:11:18 81° SSE 18:12:34 29° E visible
31 Jan 0.2 18:28:58 10° W 18:31:47 72° N 18:32:10 59° NE visible
01 Feb 1.0 18:49:28 10° W 18:51:46 52° WNW 18:51:46 52° WNW visible
02 Feb 0.3 17:34:25 10° W 17:37:14 72° N 17:40:03 10° E visible
02 Feb 2.5 19:09:57 10° WNW 19:11:24 27° W 19:11:24 27° W visible
03 Feb 0.3 17:54:55 10° W 17:57:44 70° N 17:59:50 16° E visible
03 Feb 3.6 19:30:27 10° W 19:31:04 15° W 19:31:04 15° W visible
04 Feb 0.2 18:15:24 10° WNW 18:18:13 88° SSW 18:19:34 28° ESE visible
05 Feb 1.0 18:35:53 10° W 18:38:38 48° SSW 18:39:23 36° SSE visible
06 Feb 2.3 18:56:36 10° W 18:58:56 23° SSW 18:59:18 22° SSW visible
